Change the Weather History Date:

Friday, October 11, 2013

  Actual Average Record
Temperature  
Mean Temperature 63 °F -  
Max Temperature 81 °F 81 °F 93 °F (1999)
Min Temperature 46 °F 51 °F 39 °F (1997)
Degree Days  
Heating Degree Days 2    
Growing Degree Days 13 (Base 50)    
Moisture  
Dew Point 38 °F    
Average Humidity 43    
Maximum Humidity 63    
Minimum Humidity 27    
Precipitation  
Precipitation 0.00 in - - ()
Sea Level Pressure  
Sea Level Pressure 30.00 in    
Wind  
Wind Speed 4 mph (NW)    
Max Wind Speed 8 mph    
Max Gust Speed -    
Visibility 9 miles    
Events      
Averages and records for this station are not official NWS values.
T = Trace of Precipitation, MM = Missing Value Source: NWS Daily Summary

Daily Weather History Graph

Daily Weather History Graph

Search for Another Location

Airport or City:

Trip Planner

Search our weather history database for the weather conditions in past years. The results will help you decide how hot, cold, wet, or windy it might be!

Date:

Astronomy

Oct. 11, 2013 Rise Set
Actual Time 7:03 AM PDT 6:28 PM PDT
Civil Twilight 6:37 AM PDT 6:54 PM PDT
Nautical Twilight 6:07 AM PDT 7:24 PM PDT
Astronomical Twilight 5:38 AM PDT 7:54 PM PDT
Moon 1:44 PM PDT (10/11) No Moon Set
Length of Visible Light 12h 16m
Length of Day
11h 24m
Waxing Crescent, 48% of the Moon is Illuminated
Oct 11
Waxing Crescent
Oct 11
First Quarter
Oct 18
Full
Oct 26
Last Quarter
Nov 3
New

Hourly Weather History & Observations

Time (PDT) Temp. Dew Point Humidity Pressure Visibility Wind Dir Wind Speed Gust Speed Precip Events Conditions
12:56 AM 54.0 °F 37.9 °F 55% 30.00 in 9.0 mi Calm Calm - N/A   Clear
1:56 AM 51.1 °F 32.0 °F 48% 30.01 in 9.0 mi Calm Calm - N/A   Clear
2:56 AM 50.0 °F 30.9 °F 48% 30.00 in 10.0 mi West 3.5 mph - N/A   Clear
3:56 AM 48.0 °F 30.9 °F 52% 30.00 in 9.0 mi West 8.1 mph - N/A   Clear
4:56 AM 48.0 °F 33.1 °F 56% 30.02 in 10.0 mi WNW 5.8 mph - N/A   Clear
5:56 AM 46.9 °F 33.1 °F 59% 30.03 in 10.0 mi West 8.1 mph - N/A   Clear
6:56 AM 48.0 °F 36.0 °F 63% 30.04 in 9.0 mi NW 3.5 mph - N/A   Clear
7:56 AM 48.9 °F 35.1 °F 59% 30.05 in 8.0 mi Calm Calm - N/A   Mostly Cloudy
8:56 AM 59.0 °F 42.1 °F 53% 30.06 in 8.0 mi Variable 3.5 mph - N/A   Partly Cloudy
9:56 AM 64.9 °F 44.1 °F 47% 30.06 in 9.0 mi NNW 5.8 mph - N/A   Partly Cloudy
10:56 AM 70.0 °F 44.1 °F 39% 30.06 in 9.0 mi NNE 3.5 mph - N/A   Partly Cloudy
11:56 AM 73.0 °F 43.0 °F 34% 30.04 in 9.0 mi Calm Calm - N/A   Clear
12:56 PM 75.0 °F 42.1 °F 31% 30.02 in 10.0 mi Variable 4.6 mph - N/A   Clear
1:56 PM 77.0 °F 42.1 °F 29% 30.00 in 9.0 mi WNW 6.9 mph - N/A   Clear
2:56 PM 80.1 °F 43.0 °F 27% 29.98 in 10.0 mi Variable 5.8 mph - N/A   Clear
3:56 PM 80.1 °F 43.0 °F 27% 29.96 in 10.0 mi Variable 3.5 mph - N/A   Clear
4:56 PM 79.0 °F 44.1 °F 29% 29.95 in 10.0 mi ENE 5.8 mph - N/A   Clear
5:56 PM 77.0 °F 42.1 °F 29% 29.95 in 10.0 mi North 8.1 mph - N/A   Clear
6:56 PM 69.1 °F 41.0 °F 36% 29.95 in 10.0 mi North 6.9 mph - N/A   Clear
7:56 PM 66.0 °F 41.0 °F 40% 29.95 in 10.0 mi North 4.6 mph - N/A   Clear
8:56 PM 63.0 °F 35.1 °F 35% 29.96 in 9.0 mi Calm Calm - N/A   Clear
9:56 PM 60.1 °F 35.1 °F 39% 29.98 in 9.0 mi West 8.1 mph - N/A   Clear
10:56 PM 57.0 °F 34.0 °F 42% 29.98 in 10.0 mi WNW 5.8 mph - N/A   Clear
11:56 PM 57.0 °F 36.0 °F 45% 29.98 in 10.0 mi Variable 3.5 mph - N/A   Clear